Weather History for KCVX - October, 2012

Change the Weather History Date:

Tuesday, October 23, 2012

  Actual Average Record
Temperature  
Mean Temperature 58 °F -  
Max Temperature 63 °F 53 °F 84 °F (2001)
Min Temperature 53 °F 39 °F 28 °F (2008)
Degree Days  
Heating Degree Days 7    
Growing Degree Days 8 (Base 50)    
Moisture  
Dew Point 50 °F    
Average Humidity 78    
Maximum Humidity 88    
Minimum Humidity 63    
Precipitation  
Precipitation 0.00 in - - ()
Sea Level Pressure  
Sea Level Pressure 30.00 in    
Wind  
Wind Speed 11 mph (East)    
Max Wind Speed 17 mph    
Max Gust Speed 26 mph    
Visibility 10 miles    
Events      
Averages and records for this station are not official NWS values.
T = Trace of Precipitation, MM = Missing Value Source: NWS Daily Summary

Daily Weather History Graph

Daily Weather History Graph

Search for Another Location

Airport or City:

Trip Planner

Search our weather history database for the weather conditions in past years. The results will help you decide how hot, cold, wet, or windy it might be!

Date:

Astronomy

Oct. 23, 2012 Rise Set
Actual Time 8:08 AM EDT 6:41 PM EDT
Civil Twilight 7:38 AM EDT 7:11 PM EDT
Nautical Twilight 7:03 AM EDT 7:46 PM EDT
Astronomical Twilight 6:29 AM EDT 8:20 PM EDT
Moon 3:39 PM EDT (10/23) 1:43 AM EDT (10/23)
Length of Visible Light 11h 33m
Length of Day
10h 32m
Waxing Gibbous, 66% of the Moon is Illuminated
Oct 23
Waxing Gibbous
Oct 29
Full
Nov 6
Last Quarter
Nov 13
New
Nov 20
First Quarter

Hourly Weather History & Observations

Time (EDT) Temp. Dew Point Humidity Pressure Visibility Wind Dir Wind Speed Gust Speed Precip Events Conditions
12:14 AM 57.2 °F 49.6 °F 76% 30.00 in 10.0 mi East 6.9 mph - N/A   Overcast
12:34 AM 57.2 °F 49.1 °F 74% 29.99 in 10.0 mi East 4.6 mph - N/A   Overcast
12:54 AM 56.8 °F 49.3 °F 76% 29.99 in 10.0 mi East 4.6 mph - N/A   Overcast
1:14 AM 57.0 °F 50.0 °F 77% 29.99 in 10.0 mi East 5.8 mph - N/A   Overcast
1:34 AM 56.5 °F 49.3 °F 77% 29.99 in 10.0 mi East 9.2 mph - N/A   Overcast
1:54 AM 55.8 °F 49.5 °F 79% 29.99 in 10.0 mi East 10.4 mph - N/A   Overcast
2:14 AM 55.6 °F 49.6 °F 80% 29.99 in 10.0 mi East 11.5 mph - N/A   Overcast
2:34 AM 55.4 °F 49.5 °F 80% 29.99 in 10.0 mi East 13.8 mph - N/A   Overcast
2:54 AM 55.8 °F 49.6 °F 80% 29.99 in 10.0 mi East 10.4 mph - N/A   Overcast
3:14 AM 55.8 °F 50.0 °F 81% 29.99 in 10.0 mi East 8.1 mph - N/A   Overcast
3:34 AM 55.8 °F 50.0 °F 81% 29.99 in 10.0 mi East 8.1 mph - N/A   Overcast
3:54 AM 55.4 °F 49.8 °F 81% 29.99 in 10.0 mi East 9.2 mph - N/A   Overcast
4:14 AM 55.4 °F 50.0 °F 82% 29.99 in 10.0 mi East 8.1 mph - N/A   Overcast
4:34 AM 55.8 °F 49.8 °F 80% 29.99 in 10.0 mi East 10.4 mph - N/A   Overcast
4:54 AM 55.9 °F 49.5 °F 79% 30.00 in 10.0 mi East 10.4 mph - N/A   Overcast
5:14 AM 55.8 °F 49.6 °F 80% 30.00 in 10.0 mi East 10.4 mph - N/A   Overcast
5:34 AM 55.4 °F 50.2 °F 83% 30.00 in 10.0 mi East 11.5 mph - N/A   Light Drizzle
5:54 AM 55.8 °F 49.6 °F 80% 30.01 in 10.0 mi East 10.4 mph 16.1 mph N/A   Overcast
6:14 AM 55.8 °F 49.6 °F 80% 30.02 in 10.0 mi East 10.4 mph - N/A   Overcast
6:34 AM 55.6 °F 49.6 °F 80% 30.01 in 10.0 mi East 10.4 mph - N/A   Overcast
6:54 AM 54.9 °F 49.5 °F 82% 30.02 in 10.0 mi East 11.5 mph - N/A   Overcast
7:34 AM 55.2 °F 49.1 °F 80% 30.02 in 10.0 mi East 10.4 mph - N/A   Overcast
7:54 AM 55.6 °F 47.8 °F 75% 30.02 in 10.0 mi East 11.5 mph 16.1 mph N/A   Overcast
8:14 AM 55.4 °F 48.2 °F 77% 30.01 in 10.0 mi East 10.4 mph - N/A   Overcast
8:34 AM 55.6 °F 47.5 °F 74% 30.01 in 10.0 mi East 12.7 mph - N/A   Overcast
8:54 AM 55.6 °F 47.3 °F 74% 30.01 in 10.0 mi East 12.7 mph 20.7 mph N/A   Overcast
9:14 AM 55.9 °F 46.8 °F 71% 30.00 in 10.0 mi East 17.3 mph 23.0 mph N/A   Overcast
9:34 AM 56.5 °F 46.9 °F 70% 29.99 in 10.0 mi East 16.1 mph 26.5 mph N/A   Scattered Clouds
9:54 AM 56.5 °F 47.5 °F 72% 30.00 in 10.0 mi ESE 17.3 mph 26.5 mph N/A   Clear
10:14 AM 57.0 °F 47.5 °F 70% 30.00 in 10.0 mi East 16.1 mph 24.2 mph N/A   Scattered Clouds
10:34 AM 58.1 °F 47.5 °F 68% 30.00 in 10.0 mi East 16.1 mph 23.0 mph N/A   Scattered Clouds
10:54 AM 59.0 °F 47.8 °F 66% 29.99 in 10.0 mi East 17.3 mph 23.0 mph N/A   Clear
11:14 AM 59.9 °F 48.6 °F 66% 30.00 in 10.0 mi ESE 13.8 mph - N/A   Mostly Cloudy
11:54 AM 62.8 °F 50.0 °F 63% 30.02 in 10.0 mi ESE 13.8 mph 19.6 mph N/A   Overcast
12:13 PM 62.4 °F 50.2 °F 64% 30.02 in 10.0 mi East 12.7 mph 18.4 mph N/A   Overcast
12:34 PM 63.0 °F 51.1 °F 65% 30.02 in 10.0 mi ESE 12.7 mph - N/A   Mostly Cloudy
12:54 PM 63.1 °F 51.1 °F 65% 30.02 in 10.0 mi ESE 13.8 mph 20.7 mph N/A   Scattered Clouds
1:14 PM 63.9 °F 51.8 °F 65% 30.01 in 10.0 mi East 16.1 mph 20.7 mph N/A   Mostly Cloudy
1:34 PM 63.9 °F 51.8 °F 65% 30.01 in 10.0 mi ESE 16.1 mph 19.6 mph N/A   Scattered Clouds
1:54 PM 61.9 °F 51.4 °F 69% 30.01 in 10.0 mi East 15.0 mph - N/A   Mostly Cloudy
2:14 PM 61.3 °F 51.3 °F 69% 30.00 in 10.0 mi ESE 11.5 mph 18.4 mph N/A   Overcast
2:34 PM 60.8 °F 51.6 °F 72% 30.00 in 10.0 mi East 12.7 mph 16.1 mph N/A   Overcast
2:54 PM 60.3 °F 51.3 °F 72% 30.00 in 10.0 mi East 12.7 mph 19.6 mph N/A   Overcast
3:14 PM 60.1 °F 51.3 °F 73% 30.00 in 10.0 mi East 13.8 mph - N/A   Overcast
3:34 PM 59.4 °F 51.3 °F 75% 30.00 in 10.0 mi East 17.3 mph - N/A   Mostly Cloudy
3:54 PM 58.6 °F 51.3 °F 76% 30.00 in 10.0 mi ESE 13.8 mph - N/A   Overcast
4:14 PM 57.6 °F 51.1 °F 79% 30.01 in 10.0 mi ESE 10.4 mph - N/A   Overcast
4:33 PM 57.0 °F 51.1 °F 81% 30.00 in 10.0 mi East 12.7 mph - N/A   Overcast
4:54 PM 56.5 °F 51.1 °F 82% 30.00 in 10.0 mi ESE 11.5 mph - N/A   Overcast
5:14 PM 56.3 °F 51.4 °F 84% 30.00 in 10.0 mi East 9.2 mph - N/A   Overcast
5:34 PM 55.8 °F 51.4 °F 85% 30.00 in 10.0 mi ESE 11.5 mph 20.7 mph N/A   Overcast
5:54 PM 55.6 °F 51.1 °F 85% 30.00 in 10.0 mi East 15.0 mph 20.7 mph N/A   Overcast
6:14 PM 55.0 °F 50.9 °F 86% 30.00 in 10.0 mi ESE 15.0 mph 20.7 mph N/A   Overcast
6:34 PM 54.9 °F 50.9 °F 86% 30.00 in 10.0 mi ESE 16.1 mph - N/A   Overcast
6:54 PM 54.7 °F 50.5 °F 86% 30.00 in 10.0 mi East 15.0 mph 23.0 mph N/A   Overcast
7:14 PM 54.5 °F 50.5 °F 86% 30.01 in 10.0 mi ESE 10.4 mph 19.6 mph N/A   Overcast
7:34 PM 54.5 °F 50.2 °F 85% 30.02 in 10.0 mi ESE 17.3 mph 20.7 mph N/A   Overcast
7:54 PM 54.1 °F 50.2 °F 86% 30.01 in 10.0 mi ESE 15.0 mph 21.9 mph N/A   Overcast
8:14 PM 54.1 °F 50.2 °F 86% 30.01 in 10.0 mi ESE 16.1 mph 24.2 mph N/A   Overcast
8:34 PM 54.0 °F 50.0 °F 86% 30.01 in 10.0 mi East 16.1 mph 21.9 mph N/A   Overcast
8:54 PM 54.0 °F 50.2 °F 87% 30.01 in 10.0 mi East 15.0 mph - N/A   Overcast
9:14 PM 54.0 °F 50.2 °F 87% 30.02 in 10.0 mi ESE 12.7 mph 25.3 mph N/A   Overcast
9:34 PM 53.8 °F 50.0 °F 87% 30.02 in 10.0 mi ESE 12.7 mph - N/A   Overcast
9:54 PM 53.8 °F 50.2 °F 88% 30.02 in 10.0 mi ESE 15.0 mph 19.6 mph N/A   Overcast
10:14 PM 53.8 °F 50.4 °F 88% 30.02 in 10.0 mi ESE 13.8 mph 18.4 mph N/A   Overcast
10:34 PM 54.0 °F 50.4 °F 88% 30.02 in 10.0 mi ESE 13.8 mph 17.3 mph N/A   Overcast
10:54 PM 53.8 °F 50.2 °F 88% 30.02 in 10.0 mi ESE 15.0 mph 20.7 mph N/A   Overcast
11:34 PM 53.8 °F 50.4 °F 88% 30.02 in 10.0 mi ESE 12.7 mph - N/A   Overcast
11:54 PM 54.0 °F 50.5 °F 88% 30.02 in 10.0 mi ESE 11.5 mph - N/A   Overcast